owner,sensor,date,latitude,longitude,vertical_datum,sea_water_practical_salinity,qcFlag 
DISL,ioos:station:DISL:DISL:1,2010-02-01T00:00:00Z,30.2513,-88.0778,6.153,4.72,1111122 
DISL,ioos:station:DISL:DISL:1,2010-02-01T00:30:00Z,30.2513,-88.0778,6.218,4.91,1111122 
DISL,ioos:station:DISL:DISL:1,2010-02-01T01:00:00Z,30.2513,-88.0778,6.257,4.92,1111122 
DISL,ioos:station:DISL:DISL:1,2010-02-01T01:30:00Z,30.2513,-88.0778,6.386,5.06,1111122 
DISL,ioos:station:DISL:DISL:1,2010-02-01T02:00:00Z,30.2513,-88.0778,6.458,5.01,1111122 
DISL,ioos:station:DISL:DISL:1,2010-02-01T02:30:00Z,30.2513,-88.0778,6.496,4.96,1111122 
DISL,ioos:station:DISL:DISL:1,2010-02-01T03:00:00Z,30.2513,-88.0778,6.566,4.97,1111122 
DISL,ioos:station:DISL:DISL:1,2010-02-01T03:30:00Z,30.2513,-88.0778,6.614,4.96,1111122 
DISL,ioos:station:DISL:DISL:1,2010-02-01T04:00:00Z,30.2513,-88.0778,6.531,5.12,1111122 
DISL,ioos:station:DISL:DISL:1,2010-02-01T04:30:00Z,30.2513,-88.0778,6.586,5.43,1111122 
DISL,ioos:station:DISL:DISL:1,2010-02-01T05:00:00Z,30.2513,-88.0778,6.556,5.65,1111122 
DISL,ioos:station:DISL:DISL:1,2010-02-01T05:30:00Z,30.2513,-88.0778,6.564,5.61,1111122 
DISL,ioos:station:DISL:DISL:1,2010-02-01T06:00:00Z,30.2513,-88.0778,6.556,5.59,1111122 
DISL,ioos:station:DISL:DISL:1,2010-02-01T06:30:00Z,30.2513,-88.0778,6.546,5.42,1111122 
DISL,ioos:station:DISL:DISL:1,2010-02-01T07:00:00Z,30.2513,-88.0778,6.573,5.29,1111122 
DISL,ioos:station:DISL:DISL:1,2010-02-01T07:30:00Z,30.2513,-88.0778,6.587,5.24,1111122 
DISL,ioos:station:DISL:DISL:1,2010-02-01T08:00:00Z,30.2513,-88.0778,6.401,5.41,1111122 
DISL,ioos:station:DISL:DISL:1,2010-02-01T08:30:00Z,30.2513,-88.0778,6.397,5.32,1111122 
DISL,ioos:station:DISL:DISL:1,2010-02-01T09:00:00Z,30.2513,-88.0778,6.69,4.76,1111122 
DISL,ioos:station:DISL:DISL:1,2010-02-01T09:30:00Z,30.2513,-88.0778,6.32,4.84,1111122 
DISL,ioos:station:DISL:DISL:1,2010-02-01T10:00:00Z,30.2513,-88.0778,6.246,4.88,1111122 
DISL,ioos:station:DISL:DISL:1,2010-02-01T10:30:00Z,30.2513,-88.0778,6.128,4.88,1111122 
DISL,ioos:station:DISL:DISL:1,2010-02-01T11:00:00Z,30.2513,-88.0778,6.065,4.95,1111122 
DISL,ioos:station:DISL:DISL:1,2010-02-01T11:30:00Z,30.2513,-88.0778,6.002,4.96,1111122 
DISL,ioos:station:DISL:DISL:1,2010-02-01T12:00:00Z,30.2513,-88.0778,5.972,4.81,1111122 
DISL,ioos:station:DISL:DISL:1,2010-02-01T12:30:00Z,30.2513,-88.0778,5.953,4.61,1111122 
DISL,ioos:station:DISL:DISL:1,2010-02-01T13:00:00Z,30.2513,-88.0778,5.97,4.5,1111122 
DISL,ioos:station:DISL:DISL:1,2010-02-01T13:30:00Z,30.2513,-88.0778,5.91,4.47,1111122 
DISL,ioos:station:DISL:DISL:1,2010-02-01T14:00:00Z,30.2513,-88.0778,5.875,4.45,1111122 
DISL,ioos:station:DISL:DISL:1,2010-02-01T14:30:00Z,30.2513,-88.0778,5.88,4.4,1111122 
DISL,ioos:station:DISL:DISL:1,2010-02-01T15:00:00Z,30.2513,-88.0778,5.866,4.35,1111122 
DISL,ioos:station:DISL:DISL:1,2010-02-01T15:30:00Z,30.2513,-88.0778,5.857,4.49,1111122 
DISL,ioos:station:DISL:DISL:1,2010-02-01T16:00:00Z,30.2513,-88.0778,5.872,4.44,1111122 
DISL,ioos:station:DISL:DISL:1,2010-02-01T16:30:00Z,30.2513,-88.0778,5.756,4.48,1111122 
DISL,ioos:station:DISL:DISL:1,2010-02-01T17:00:00Z,30.2513,-88.0778,5.746,4.52,1111122 
DISL,ioos:station:DISL:DISL:1,2010-02-01T17:30:00Z,30.2513,-88.0778,5.898,4.53,1111122 
DISL,ioos:station:DISL:DISL:1,2010-02-01T18:00:00Z,30.2513,-88.0778,5.831,4.43,1111122 
DISL,ioos:station:DISL:DISL:1,2010-02-01T18:30:00Z,30.2513,-88.0778,5.876,4.27,1111122 
DISL,ioos:station:DISL:DISL:1,2010-02-01T19:00:00Z,30.2513,-88.0778,5.867,3.99,1111122 
DISL,ioos:station:DISL:DISL:1,2010-02-01T19:30:00Z,30.2513,-88.0778,5.862,4.09,1111122 
DISL,ioos:station:DISL:DISL:1,2010-02-01T20:00:00Z,30.2513,-88.0778,5.966,4.03,1111122 
DISL,ioos:station:DISL:DISL:1,2010-02-01T20:30:00Z,30.2513,-88.0778,6.041,4.06,1111122 
DISL,ioos:station:DISL:DISL:1,2010-02-01T21:00:00Z,30.2513,-88.0778,6.015,4.08,1111122 
DISL,ioos:station:DISL:DISL:1,2010-02-01T21:30:00Z,30.2513,-88.0778,6.025,4.31,1111122 
DISL,ioos:station:DISL:DISL:1,2010-02-01T22:00:00Z,30.2513,-88.0778,6.038,4.51,1111122 
DISL,ioos:station:DISL:DISL:1,2010-02-01T22:30:00Z,30.2513,-88.0778,6.143,4.8,1111122 
DISL,ioos:station:DISL:DISL:1,2010-02-01T23:00:00Z,30.2513,-88.0778,6.218,4.88,1111122 
DISL,ioos:station:DISL:DISL:1,2010-02-01T23:30:00Z,30.2513,-88.0778,6.224,4.95,1111122 
DISL,ioos:station:DISL:DISL:1,2010-02-02T00:00:00Z,30.2513,-88.0778,6.182,4.95,1111122 
DISL,ioos:station:DISL:DISL:1,2010-02-02T00:30:00Z,30.2513,-88.0778,6.222,4.54,1111122 
DISL,ioos:station:DISL:DISL:1,2010-02-02T01:00:00Z,30.2513,-88.0778,6.333,3.97,1111122 
DISL,ioos:station:DISL:DISL:1,2010-02-02T01:30:00Z,30.2513,-88.0778,6.28,3.84,1111122 
DISL,ioos:station:DISL:DISL:1,2010-02-02T02:00:00Z,30.2513,-88.0778,6.337,3.8,1111122 
DISL,ioos:station:DISL:DISL:1,2010-02-02T02:30:00Z,30.2513,-88.0778,6.401,3.79,1111122 
DISL,ioos:station:DISL:DISL:1,2010-02-02T03:00:00Z,30.2513,-88.0778,6.435,3.75,1111122 
DISL,ioos:station:DISL:DISL:1,2010-02-02T03:30:00Z,30.2513,-88.0778,6.429,3.73,1111122 
DISL,ioos:station:DISL:DISL:1,2010-02-02T04:00:00Z,30.2513,-88.0778,6.389,3.72,1111122 
DISL,ioos:station:DISL:DISL:1,2010-02-02T04:30:00Z,30.2513,-88.0778,6.423,3.62,1111122 
DISL,ioos:station:DISL:DISL:1,2010-02-02T05:00:00Z,30.2513,-88.0778,6.478,3.61,1111122 
DISL,ioos:station:DISL:DISL:1,2010-02-02T05:30:00Z,30.2513,-88.0778,6.441,3.56,1111122 
DISL,ioos:station:DISL:DISL:1,2010-02-02T06:00:00Z,30.2513,-88.0778,6.354,3.54,1111122 
DISL,ioos:station:DISL:DISL:1,2010-02-02T06:30:00Z,30.2513,-88.0778,6.388,3.7,1111122 
DISL,ioos:station:DISL:DISL:1,2010-02-02T07:00:00Z,30.2513,-88.0778,6.394,3.59,1111122 
DISL,ioos:station:DISL:DISL:1,2010-02-02T07:30:00Z,30.2513,-88.0778,6.425,3.52,1111122 
DISL,ioos:station:DISL:DISL:1,2010-02-02T08:00:00Z,30.2513,-88.0778,6.404,3.51,1111122 
DISL,ioos:station:DISL:DISL:1,2010-02-02T08:30:00Z,30.2513,-88.0778,6.325,3.31,1111122 
DISL,ioos:station:DISL:DISL:1,2010-02-02T09:00:00Z,30.2513,-88.0778,6.362,3.33,1111122 
DISL,ioos:station:DISL:DISL:1,2010-02-02T09:30:00Z,30.2513,-88.0778,6.18,3.33,1111122 
DISL,ioos:station:DISL:DISL:1,2010-02-02T10:00:00Z,30.2513,-88.0778,6.059,3.4,1111122 
DISL,ioos:station:DISL:DISL:1,2010-02-02T10:30:00Z,30.2513,-88.0778,6.104,3.3,1111122 
DISL,ioos:station:DISL:DISL:1,2010-02-02T11:00:00Z,30.2513,-88.0778,6.047,3.27,1111122 
DISL,ioos:station:DISL:DISL:1,2010-02-02T11:30:00Z,30.2513,-88.0778,6.052,3.29,1111122 
DISL,ioos:station:DISL:DISL:1,2010-02-02T12:00:00Z,30.2513,-88.0778,5.939,3.22,1111122 
DISL,ioos:station:DISL:DISL:1,2010-02-02T12:30:00Z,30.2513,-88.0778,5.891,3.14,1111122 
DISL,ioos:station:DISL:DISL:1,2010-02-02T13:00:00Z,30.2513,-88.0778,5.912,3.01,1111122 
DISL,ioos:station:DISL:DISL:1,2010-02-02T13:30:00Z,30.2513,-88.0778,5.942,2.95,1111122 
DISL,ioos:station:DISL:DISL:1,2010-02-02T14:00:00Z,30.2513,-88.0778,5.872,2.92,1111122 
DISL,ioos:station:DISL:DISL:1,2010-02-02T14:30:00Z,30.2513,-88.0778,5.922,2.79,1111122 
DISL,ioos:station:DISL:DISL:1,2010-02-02T15:00:00Z,30.2513,-88.0778,5.903,2.74,1111122 
DISL,ioos:station:DISL:DISL:1,2010-02-02T15:30:00Z,30.2513,-88.0778,5.823,2.6,1111122 
DISL,ioos:station:DISL:DISL:1,2010-02-02T16:00:00Z,30.2513,-88.0778,5.892,2.55,1111122 
DISL,ioos:station:DISL:DISL:1,2010-02-02T16:30:00Z,30.2513,-88.0778,5.96,2.52,1111122 
DISL,ioos:station:DISL:DISL:1,2010-02-02T17:00:00Z,30.2513,-88.0778,5.932,2.38,1111122 
DISL,ioos:station:DISL:DISL:1,2010-02-02T17:30:00Z,30.2513,-88.0778,5.96,2.38,1111122 
DISL,ioos:station:DISL:DISL:1,2010-02-02T18:00:00Z,30.2513,-88.0778,5.924,2.39,1111122 
DISL,ioos:station:DISL:DISL:1,2010-02-02T18:30:00Z,30.2513,-88.0778,5.865,2.38,1111122 
DISL,ioos:station:DISL:DISL:1,2010-02-02T19:00:00Z,30.2513,-88.0778,5.925,2.02,1111122 
DISL,ioos:station:DISL:DISL:1,2010-02-02T19:30:00Z,30.2513,-88.0778,5.923,2.32,1111122 
DISL,ioos:station:DISL:DISL:1,2010-02-02T20:00:00Z,30.2513,-88.0778,6.004,2.31,1111122 
DISL,ioos:station:DISL:DISL:1,2010-02-02T20:30:00Z,30.2513,-88.0778,5.939,1.75,1111122 
DISL,ioos:station:DISL:DISL:1,2010-02-02T21:00:00Z,30.2513,-88.0778,5.949,1.73,1111122 
DISL,ioos:station:DISL:DISL:1,2010-02-02T21:30:00Z,30.2513,-88.0778,5.986,1.58,1111122 
DISL,ioos:station:DISL:DISL:1,2010-02-02T22:00:00Z,30.2513,-88.0778,5.946,1.51,1111122 
DISL,ioos:station:DISL:DISL:1,2010-02-02T22:30:00Z,30.2513,-88.0778,5.983,1.46,1111122 
DISL,ioos:station:DISL:DISL:1,2010-02-02T23:00:00Z,30.2513,-88.0778,6.007,1.54,1111122 
DISL,ioos:station:DISL:DISL:1,2010-02-02T23:30:00Z,30.2513,-88.0778,5.939,1.49,1111122 
DISL,ioos:station:DISL:DISL:1,2010-02-03T00:00:00Z,30.2513,-88.0778,6.024,1.56,1111122 
DISL,ioos:station:DISL:DISL:1,2010-02-03T00:30:00Z,30.2513,-88.0778,5.941,1.52,1111122 
DISL,ioos:station:DISL:DISL:1,2010-02-03T01:00:00Z,30.2513,-88.0778,5.95,1.52,1111122 
DISL,ioos:station:DISL:DISL:1,2010-02-03T01:30:00Z,30.2513,-88.0778,5.616,1.55,1111122 
DISL,ioos:station:DISL:DISL:1,2010-02-03T02:00:00Z,30.2513,-88.0778,5.94,1.6,1111122 
DISL,ioos:station:DISL:DISL:1,2010-02-03T02:30:00Z,30.2513,-88.0778,5.962,1.67,1111122 
DISL,ioos:station:DISL:DISL:1,2010-02-03T03:00:00Z,30.2513,-88.0778,5.942,1.74,1111122 
DISL,ioos:station:DISL:DISL:1,2010-02-03T03:30:00Z,30.2513,-88.0778,5.951,1.85,1111122 
DISL,ioos:station:DISL:DISL:1,2010-02-03T04:00:00Z,30.2513,-88.0778,5.954,1.87,1111122 
DISL,ioos:station:DISL:DISL:1,2010-02-03T04:30:00Z,30.2513,-88.0778,5.879,1.79,1111122 
DISL,ioos:station:DISL:DISL:1,2010-02-03T05:00:00Z,30.2513,-88.0778,5.897,1.85,1111122 
DISL,ioos:station:DISL:DISL:1,2010-02-03T05:30:00Z,30.2513,-88.0778,5.862,1.9,1111122 
DISL,ioos:station:DISL:DISL:1,2010-02-03T06:00:00Z,30.2513,-88.0778,5.908,1.92,1111122 
DISL,ioos:station:DISL:DISL:1,2010-02-03T06:30:00Z,30.2513,-88.0778,5.94,1.9,1111122 
DISL,ioos:station:DISL:DISL:1,2010-02-03T07:00:00Z,30.2513,-88.0778,5.907,1.84,1111122 
DISL,ioos:station:DISL:DISL:1,2010-02-03T07:30:00Z,30.2513,-88.0778,5.944,1.7,1111122 
DISL,ioos:station:DISL:DISL:1,2010-02-03T08:00:00Z,30.2513,-88.0778,5.866,1.59,1111122 
DISL,ioos:station:DISL:DISL:1,2010-02-03T08:30:00Z,30.2513,-88.0778,5.898,1.55,1111122 
DISL,ioos:station:DISL:DISL:1,2010-02-03T09:00:00Z,30.2513,-88.0778,5.855,1.54,1111122 
DISL,ioos:station:DISL:DISL:1,2010-02-03T09:30:00Z,30.2513,-88.0778,5.764,1.69,1111122 
DISL,ioos:station:DISL:DISL:1,2010-02-03T10:00:00Z,30.2513,-88.0778,5.91,1.89,1111122 
DISL,ioos:station:DISL:DISL:1,2010-02-03T10:30:00Z,30.2513,-88.0778,5.84,1.85,1111122 
DISL,ioos:station:DISL:DISL:1,2010-02-03T11:00:00Z,30.2513,-88.0778,5.894,1.87,1111122 
DISL,ioos:station:DISL:DISL:1,2010-02-03T11:30:00Z,30.2513,-88.0778,5.84,1.87,1111122 
DISL,ioos:station:DISL:DISL:1,2010-02-03T12:00:00Z,30.2513,-88.0778,5.826,1.77,1111122 
DISL,ioos:station:DISL:DISL:1,2010-02-03T12:30:00Z,30.2513,-88.0778,5.89,1.6,1111122 
DISL,ioos:station:DISL:DISL:1,2010-02-03T13:00:00Z,30.2513,-88.0778,5.859,1.53,1111122 
DISL,ioos:station:DISL:DISL:1,2010-02-03T13:30:00Z,30.2513,-88.0778,5.987,1.48,1111122 
DISL,ioos:station:DISL:DISL:1,2010-02-03T14:00:00Z,30.2513,-88.0778,6.049,1.49,1111122 
DISL,ioos:station:DISL:DISL:1,2010-02-03T14:30:00Z,30.2513,-88.0778,6.03,1.48,1111122 
DISL,ioos:station:DISL:DISL:1,2010-02-03T15:00:00Z,30.2513,-88.0778,6.155,1.5,1111122 
DISL,ioos:station:DISL:DISL:1,2010-02-03T15:30:00Z,30.2513,-88.0778,6.21,1.5,1111122 
DISL,ioos:station:DISL:DISL:1,2010-02-03T16:00:00Z,30.2513,-88.0778,6.199,1.51,1111122 
DISL,ioos:station:DISL:DISL:1,2010-02-03T16:30:00Z,30.2513,-88.0778,6.254,1.6,1111122 
DISL,ioos:station:DISL:DISL:1,2010-02-03T17:00:00Z,30.2513,-88.0778,6.219,1.58,1111122 
DISL,ioos:station:DISL:DISL:1,2010-02-03T17:30:00Z,30.2513,-88.0778,6.195,1.58,1111122 
DISL,ioos:station:DISL:DISL:1,2010-02-03T18:00:00Z,30.2513,-88.0778,6.243,1.74,1111122 
DISL,ioos:station:DISL:DISL:1,2010-02-03T18:30:00Z,30.2513,-88.0778,6.215,3.05,1111122 
DISL,ioos:station:DISL:DISL:1,2010-02-03T19:00:00Z,30.2513,-88.0778,6.303,2.37,1111122 
DISL,ioos:station:DISL:DISL:1,2010-02-03T19:30:00Z,30.2513,-88.0778,6.328,1.64,1111122 
DISL,ioos:station:DISL:DISL:1,2010-02-03T20:00:00Z,30.2513,-88.0778,6.334,1.74,1111122 
DISL,ioos:station:DISL:DISL:1,2010-02-03T20:30:00Z,30.2513,-88.0778,6.419,2.61,1111122 
DISL,ioos:station:DISL:DISL:1,2010-02-03T21:00:00Z,30.2513,-88.0778,6.471,1.91,1111122 
DISL,ioos:station:DISL:DISL:1,2010-02-03T21:30:00Z,30.2513,-88.0778,6.368,3.82,1111122 
DISL,ioos:station:DISL:DISL:1,2010-02-03T22:00:00Z,30.2513,-88.0778,6.235,3.4,1111122 
DISL,ioos:station:DISL:DISL:1,2010-02-03T22:30:00Z,30.2513,-88.0778,6.197,3.34,1111122 
DISL,ioos:station:DISL:DISL:1,2010-02-03T23:00:00Z,30.2513,-88.0778,6.1,2.6,1111122 
DISL,ioos:station:DISL:DISL:1,2010-02-03T23:30:00Z,30.2513,-88.0778,6.12,2.52,1111122 
DISL,ioos:station:DISL:DISL:1,2010-02-04T00:00:00Z,30.2513,-88.0778,6.005,1.92,1111122 
DISL,ioos:station:DISL:DISL:1,2010-02-04T00:30:00Z,30.2513,-88.0778,6.024,1.74,1111122 
DISL,ioos:station:DISL:DISL:1,2010-02-04T01:00:00Z,30.2513,-88.0778,6.021,1.68,1111122 
DISL,ioos:station:DISL:DISL:1,2010-02-04T01:30:00Z,30.2513,-88.0778,6.013,1.66,1111122 
DISL,ioos:station:DISL:DISL:1,2010-02-04T02:00:00Z,30.2513,-88.0778,5.89,1.67,1111122 
DISL,ioos:station:DISL:DISL:1,2010-02-04T02:30:00Z,30.2513,-88.0778,5.914,1.67,1111122 
DISL,ioos:station:DISL:DISL:1,2010-02-04T03:00:00Z,30.2513,-88.0778,5.907,1.65,1111122 
DISL,ioos:station:DISL:DISL:1,2010-02-04T03:30:00Z,30.2513,-88.0778,5.9,1.64,1111122 
DISL,ioos:station:DISL:DISL:1,2010-02-04T04:00:00Z,30.2513,-88.0778,5.783,1.64,1111122 
DISL,ioos:station:DISL:DISL:1,2010-02-04T04:30:00Z,30.2513,-88.0778,5.705,1.64,1111122 
DISL,ioos:station:DISL:DISL:1,2010-02-04T05:00:00Z,30.2513,-88.0778,5.556,1.66,1111122 
DISL,ioos:station:DISL:DISL:1,2010-02-04T05:30:00Z,30.2513,-88.0778,5.638,1.66,1111122 
DISL,ioos:station:DISL:DISL:1,2010-02-04T06:00:00Z,30.2513,-88.0778,5.589,1.59,1111122 
DISL,ioos:station:DISL:DISL:1,2010-02-04T06:30:00Z,30.2513,-88.0778,5.522,1.54,1111122 
DISL,ioos:station:DISL:DISL:1,2010-02-04T07:00:00Z,30.2513,-88.0778,5.465,1.52,1111122 
DISL,ioos:station:DISL:DISL:1,2010-02-04T07:30:00Z,30.2513,-88.0778,5.599,1.5,1111122 
DISL,ioos:station:DISL:DISL:1,2010-02-04T08:00:00Z,30.2513,-88.0778,5.598,1.5,1111122 
DISL,ioos:station:DISL:DISL:1,2010-02-04T08:30:00Z,30.2513,-88.0778,5.62,1.55,1111122 
DISL,ioos:station:DISL:DISL:1,2010-02-04T09:00:00Z,30.2513,-88.0778,5.663,1.55,1111122 
DISL,ioos:station:DISL:DISL:1,2010-02-04T09:30:00Z,30.2513,-88.0778,5.583,1.56,1111122 
DISL,ioos:station:DISL:DISL:1,2010-02-04T10:00:00Z,30.2513,-88.0778,5.504,1.57,1111122 
DISL,ioos:station:DISL:DISL:1,2010-02-04T10:30:00Z,30.2513,-88.0778,5.598,1.57,1111122 
DISL,ioos:station:DISL:DISL:1,2010-02-04T11:00:00Z,30.2513,-88.0778,5.643,1.56,1111122 
DISL,ioos:station:DISL:DISL:1,2010-02-04T11:30:00Z,30.2513,-88.0778,5.667,1.55,1111122 
DISL,ioos:station:DISL:DISL:1,2010-02-04T12:00:00Z,30.2513,-88.0778,5.724,1.46,1111122 
DISL,ioos:station:DISL:DISL:1,2010-02-04T12:30:00Z,30.2513,-88.0778,5.739,1.48,1111122 
DISL,ioos:station:DISL:DISL:1,2010-02-04T13:00:00Z,30.2513,-88.0778,5.811,1.55,1111122 
DISL,ioos:station:DISL:DISL:1,2010-02-04T13:30:00Z,30.2513,-88.0778,5.979,1.57,1111122 
DISL,ioos:station:DISL:DISL:1,2010-02-04T14:00:00Z,30.2513,-88.0778,6.018,1.73,1111122 
DISL,ioos:station:DISL:DISL:1,2010-02-04T14:30:00Z,30.2513,-88.0778,6.073,2.02,1111122 
DISL,ioos:station:DISL:DISL:1,2010-02-04T15:00:00Z,30.2513,-88.0778,6.241,2.0,1111122 
DISL,ioos:station:DISL:DISL:1,2010-02-04T15:30:00Z,30.2513,-88.0778,6.335,2.25,1111122 
DISL,ioos:station:DISL:DISL:1,2010-02-04T16:00:00Z,30.2513,-88.0778,6.357,6.24,1111122 
DISL,ioos:station:DISL:DISL:1,2010-02-04T16:30:00Z,30.2513,-88.0778,6.386,10.15,1111122 
DISL,ioos:station:DISL:DISL:1,2010-02-04T17:00:00Z,30.2513,-88.0778,6.466,7.6,1111122 
DISL,ioos:station:DISL:DISL:1,2010-02-04T17:30:00Z,30.2513,-88.0778,6.459,15.77,1111122 
DISL,ioos:station:DISL:DISL:1,2010-02-04T18:00:00Z,30.2513,-88.0778,6.566,18.5,1111122 
DISL,ioos:station:DISL:DISL:1,2010-02-04T18:30:00Z,30.2513,-88.0778,6.657,13.32,1111122 
DISL,ioos:station:DISL:DISL:1,2010-02-04T19:00:00Z,30.2513,-88.0778,6.798,13.08,1111122 
DISL,ioos:station:DISL:DISL:1,2010-02-04T19:30:00Z,30.2513,-88.0778,6.645,20.34,1111122 
DISL,ioos:station:DISL:DISL:1,2010-02-04T20:00:00Z,30.2513,-88.0778,6.786,20.27,1111122 
DISL,ioos:station:DISL:DISL:1,2010-02-04T20:30:00Z,30.2513,-88.0778,6.743,2.92,1111122 
DISL,ioos:station:DISL:DISL:1,2010-02-04T21:00:00Z,30.2513,-88.0778,6.752,2.1,1111122 
DISL,ioos:station:DISL:DISL:1,2010-02-04T21:30:00Z,30.2513,-88.0778,6.721,1.93,1111122 
DISL,ioos:station:DISL:DISL:1,2010-02-04T22:00:00Z,30.2513,-88.0778,6.783,2.08,1111122 
DISL,ioos:station:DISL:DISL:1,2010-02-04T22:30:00Z,30.2513,-88.0778,6.706,2.43,1111122 
DISL,ioos:station:DISL:DISL:1,2010-02-04T23:00:00Z,30.2513,-88.0778,6.787,10.15,1111122 
DISL,ioos:station:DISL:DISL:1,2010-02-04T23:30:00Z,30.2513,-88.0778,6.704,17.49,1111122 
DISL,ioos:station:DISL:DISL:1,2010-02-05T00:00:00Z,30.2513,-88.0778,6.588,15.82,1111122 
DISL,ioos:station:DISL:DISL:1,2010-02-05T00:30:00Z,30.2513,-88.0778,6.648,17.89,1111122 
DISL,ioos:station:DISL:DISL:1,2010-02-05T01:00:00Z,30.2513,-88.0778,6.649,19.97,1111122 
DISL,ioos:station:DISL:DISL:1,2010-02-05T01:30:00Z,30.2513,-88.0778,6.582,18.27,1111122 
DISL,ioos:station:DISL:DISL:1,2010-02-05T02:00:00Z,30.2513,-88.0778,6.513,16.64,1111122 
DISL,ioos:station:DISL:DISL:1,2010-02-05T02:30:00Z,30.2513,-88.0778,6.493,16.91,1111122 
DISL,ioos:station:DISL:DISL:1,2010-02-05T03:00:00Z,30.2513,-88.0778,6.525,18.09,1111122 
DISL,ioos:station:DISL:DISL:1,2010-02-05T03:30:00Z,30.2513,-88.0778,6.624,19.77,1111122 
DISL,ioos:station:DISL:DISL:1,2010-02-05T04:00:00Z,30.2513,-88.0778,6.621,18.71,1111122 
DISL,ioos:station:DISL:DISL:1,2010-02-05T04:30:00Z,30.2513,-88.0778,6.585,18.1,1111122 
DISL,ioos:station:DISL:DISL:1,2010-02-05T05:00:00Z,30.2513,-88.0778,6.426,15.22,1111122 
DISL,ioos:station:DISL:DISL:1,2010-02-05T05:30:00Z,30.2513,-88.0778,6.574,13.73,1111122 
DISL,ioos:station:DISL:DISL:1,2010-02-05T06:00:00Z,30.2513,-88.0778,6.484,14.52,1111122 
DISL,ioos:station:DISL:DISL:1,2010-02-05T06:30:00Z,30.2513,-88.0778,6.532,14.43,1111122 
DISL,ioos:station:DISL:DISL:1,2010-02-05T07:00:00Z,30.2513,-88.0778,6.726,13.21,1111122 
DISL,ioos:station:DISL:DISL:1,2010-02-05T07:30:00Z,30.2513,-88.0778,6.622,13.31,1111122 
DISL,ioos:station:DISL:DISL:1,2010-02-05T08:00:00Z,30.2513,-88.0778,6.56,12.94,1111122 
DISL,ioos:station:DISL:DISL:1,2010-02-05T08:30:00Z,30.2513,-88.0778,6.317,12.15,1111122 
DISL,ioos:station:DISL:DISL:1,2010-02-05T09:00:00Z,30.2513,-88.0778,6.248,11.81,1111122 
DISL,ioos:station:DISL:DISL:1,2010-02-05T09:30:00Z,30.2513,-88.0778,6.264,11.8,1111122 
DISL,ioos:station:DISL:DISL:1,2010-02-05T10:00:00Z,30.2513,-88.0778,6.361,11.04,1111122 
DISL,ioos:station:DISL:DISL:1,2010-02-05T10:30:00Z,30.2513,-88.0778,6.321,8.56,1111122 
DISL,ioos:station:DISL:DISL:1,2010-02-05T11:00:00Z,30.2513,-88.0778,6.277,8.34,1111122 
DISL,ioos:station:DISL:DISL:1,2010-02-05T11:30:00Z,30.2513,-88.0778,6.132,8.59,1111122 
DISL,ioos:station:DISL:DISL:1,2010-02-05T12:00:00Z,30.2513,-88.0778,6.308,8.85,1111122 
DISL,ioos:station:DISL:DISL:1,2010-02-05T12:30:00Z,30.2513,-88.0778,6.078,9.57,1111122 
DISL,ioos:station:DISL:DISL:1,2010-02-05T13:00:00Z,30.2513,-88.0778,6.173,8.66,1111122 
DISL,ioos:station:DISL:DISL:1,2010-02-05T13:30:00Z,30.2513,-88.0778,6.299,7.62,1111122 
DISL,ioos:station:DISL:DISL:1,2010-02-05T14:00:00Z,30.2513,-88.0778,6.436,4.41,1111122 
DISL,ioos:station:DISL:DISL:1,2010-02-05T14:30:00Z,30.2513,-88.0778,6.399,8.84,1111122 
DISL,ioos:station:DISL:DISL:1,2010-02-05T15:00:00Z,30.2513,-88.0778,6.477,8.51,1111122 
DISL,ioos:station:DISL:DISL:1,2010-02-05T15:30:00Z,30.2513,-88.0778,6.415,9.03,1111122 
DISL,ioos:station:DISL:DISL:1,2010-02-05T16:00:00Z,30.2513,-88.0778,6.627,10.05,1111122 
DISL,ioos:station:DISL:DISL:1,2010-02-05T16:30:00Z,30.2513,-88.0778,6.72,10.27,1111122 
DISL,ioos:station:DISL:DISL:1,2010-02-05T17:00:00Z,30.2513,-88.0778,6.737,10.73,1111122 
DISL,ioos:station:DISL:DISL:1,2010-02-05T17:30:00Z,30.2513,-88.0778,6.767,10.44,1111122 
DISL,ioos:station:DISL:DISL:1,2010-02-05T18:00:00Z,30.2513,-88.0778,6.741,10.05,1111122 
DISL,ioos:station:DISL:DISL:1,2010-02-05T18:30:00Z,30.2513,-88.0778,6.744,10.48,1111122 
DISL,ioos:station:DISL:DISL:1,2010-02-05T19:00:00Z,30.2513,-88.0778,6.846,10.34,1111122 
DISL,ioos:station:DISL:DISL:1,2010-02-05T19:30:00Z,30.2513,-88.0778,6.895,9.81,1111122 
DISL,ioos:station:DISL:DISL:1,2010-02-05T20:00:00Z,30.2513,-88.0778,7.01,9.42,1111122 
DISL,ioos:station:DISL:DISL:1,2010-02-05T20:30:00Z,30.2513,-88.0778,7.05,9.47,1111122 
DISL,ioos:station:DISL:DISL:1,2010-02-05T21:00:00Z,30.2513,-88.0778,6.904,9.45,1111122 
DISL,ioos:station:DISL:DISL:1,2010-02-05T21:30:00Z,30.2513,-88.0778,6.808,9.05,1111122 
DISL,ioos:station:DISL:DISL:1,2010-02-05T22:00:00Z,30.2513,-88.0778,6.845,9.16,1111122 
DISL,ioos:station:DISL:DISL:1,2010-02-05T22:30:00Z,30.2513,-88.0778,6.856,8.76,1111122 
DISL,ioos:station:DISL:DISL:1,2010-02-05T23:00:00Z,30.2513,-88.0778,6.763,8.44,1111122 
DISL,ioos:station:DISL:DISL:1,2010-02-05T23:30:00Z,30.2513,-88.0778,6.787,8.24,1111122 
DISL,ioos:station:DISL:DISL:1,2010-02-06T00:00:00Z,30.2513,-88.0778,6.71,8.25,1111122 
DISL,ioos:station:DISL:DISL:1,2010-02-06T00:30:00Z,30.2513,-88.0778,6.663,8.16,1111122 
DISL,ioos:station:DISL:DISL:1,2010-02-06T01:00:00Z,30.2513,-88.0778,6.236,8.11,1111122 
DISL,ioos:station:DISL:DISL:1,2010-02-06T01:30:00Z,30.2513,-88.0778,6.461,8.12,1111122 
DISL,ioos:station:DISL:DISL:1,2010-02-06T02:00:00Z,30.2513,-88.0778,6.388,8.1,1111122 
DISL,ioos:station:DISL:DISL:1,2010-02-06T02:30:00Z,30.2513,-88.0778,6.305,8.08,1111122 
DISL,ioos:station:DISL:DISL:1,2010-02-06T03:00:00Z,30.2513,-88.0778,6.173,8.01,1111122 
DISL,ioos:station:DISL:DISL:1,2010-02-06T03:30:00Z,30.2513,-88.0778,5.994,7.9,1111122 
DISL,ioos:station:DISL:DISL:1,2010-02-06T04:00:00Z,30.2513,-88.0778,5.962,7.68,1111122 
DISL,ioos:station:DISL:DISL:1,2010-02-06T04:30:00Z,30.2513,-88.0778,5.945,7.59,1111122 
DISL,ioos:station:DISL:DISL:1,2010-02-06T05:00:00Z,30.2513,-88.0778,5.822,7.5,1111122 
DISL,ioos:station:DISL:DISL:1,2010-02-06T05:30:00Z,30.2513,-88.0778,5.805,7.56,1111122 
DISL,ioos:station:DISL:DISL:1,2010-02-06T06:00:00Z,30.2513,-88.0778,5.695,7.57,1111122 
DISL,ioos:station:DISL:DISL:1,2010-02-06T06:30:00Z,30.2513,-88.0778,5.633,7.55,1111122 
DISL,ioos:station:DISL:DISL:1,2010-02-06T07:00:00Z,30.2513,-88.0778,5.501,7.53,1111122 
DISL,ioos:station:DISL:DISL:1,2010-02-06T07:30:00Z,30.2513,-88.0778,5.388,7.55,1111122 
DISL,ioos:station:DISL:DISL:1,2010-02-06T08:00:00Z,30.2513,-88.0778,5.381,7.6,1111122 
DISL,ioos:station:DISL:DISL:1,2010-02-06T08:30:00Z,30.2513,-88.0778,5.376,7.59,1111122 
DISL,ioos:station:DISL:DISL:1,2010-02-06T09:00:00Z,30.2513,-88.0778,5.203,7.1,1111122 
DISL,ioos:station:DISL:DISL:1,2010-02-06T09:30:00Z,30.2513,-88.0778,5.113,6.76,1111122 
DISL,ioos:station:DISL:DISL:1,2010-02-06T10:00:00Z,30.2513,-88.0778,5.083,6.77,1111122 
DISL,ioos:station:DISL:DISL:1,2010-02-06T10:30:00Z,30.2513,-88.0778,5.067,6.83,1111122 
DISL,ioos:station:DISL:DISL:1,2010-02-06T11:00:00Z,30.2513,-88.0778,5.129,6.82,1111122 
DISL,ioos:station:DISL:DISL:1,2010-02-06T11:30:00Z,30.2513,-88.0778,5.136,6.8,1111122 
DISL,ioos:station:DISL:DISL:1,2010-02-06T12:00:00Z,30.2513,-88.0778,5.141,7.0,1111122 
DISL,ioos:station:DISL:DISL:1,2010-02-06T12:30:00Z,30.2513,-88.0778,5.254,7.27,1111122 
DISL,ioos:station:DISL:DISL:1,2010-02-06T13:00:00Z,30.2513,-88.0778,5.313,7.44,1111122 
DISL,ioos:station:DISL:DISL:1,2010-02-06T13:30:00Z,30.2513,-88.0778,5.359,7.62,1111122 
DISL,ioos:station:DISL:DISL:1,2010-02-06T14:00:00Z,30.2513,-88.0778,5.426,7.62,1111122 
DISL,ioos:station:DISL:DISL:1,2010-02-06T14:30:00Z,30.2513,-88.0778,5.488,7.59,1111122 
DISL,ioos:station:DISL:DISL:1,2010-02-06T15:00:00Z,30.2513,-88.0778,5.475,7.58,1111122 
DISL,ioos:station:DISL:DISL:1,2010-02-06T15:30:00Z,30.2513,-88.0778,5.554,7.65,1111122 